Torna al catalogo

STARLINK-32302

AttivoComunicazioniVLEO
NORAD 61621·PAYLOAD·🇺🇸 United States

Lanciato Oct 23, 2024 da Cape Canaveral Space Force Station

Loading…

Prossimi Passaggi (prossime 24 ore)

TLE

AggiornatoSource: CelesTrak SupGP

Epoca: Sep 15, 2026, 03:35 UTC

1 61621C 24191A   26258.14979167  .00024199  00000+0  87682-3 0  2586
2 61621  43.0018 164.2793 0001422 278.7431 125.4466 15.27554366    10

Traccia STARLINK-32302 in tempo reale con AllMySat

Download on the App Store